www.pogodaiklimat.ru

Погода и климат >> Архив погоды >> Россия >> Краснодарский край >> Сочи аэропорт (Адлер)


ПОГОДА в Сочи аэропорту (Адлер)

  • Прогноз погоды в Сочи аэропорту (Адлер)
  • Монитор погоды в Сочи аэропорту (Адлер)
  • Климат города

АРХИВ ПОГОДЫ в Сочи аэропорту (Адлер)

Время (UTC), дата Ветер
(напр.,м/с)
 
Видим.   Явления Облачность Т
(С)
Тd
(С)
f
(%)
Тe
(С)
Тes
(С)
Комфортность P
(гПа)
Po
(гПа)
Тmin
(С)
Tmax
(С)
R
(мм)
R24
(мм)
S
(см)
06 13.08 В 2 20 км 1/1 1000 м
[Cu med, cong]
+24.2 +19.2 74 +29 +37 душно 1014.1 1012.4 +18.2
09 13.08 ЮЗ 3 20 км 1/1 1000 м
[Cu med, cong]
+25.7 +22.0 80 +33 +46 очень
душно
1013.9 1012.2
12 13.08 З 3 20 км 3/3 1000 м
[Cu med, cong]
+25.9 +19.6 68 +31 +38 очень
душно
1013.6 1011.9
15 13.08 З 2 20 км 1/1 600 м
[Cu med, cong]
+25.3 +19.6 71 +31 +32 очень
душно
1012.8 1011.1 +27.0
18 13.08 штиль 0 4000 м 8/8 720 м
[Sc]
+24.0 +19.8 77 +29 +29 душно 1013.5 1011.8
21 13.08 СВ 2 4000 м 4/4 1500 м
[Sc]
+21.4 +18.9 86 +26 +26 душно 1013.2 1011.5
00 14.08 СВ 4 4000 м 6/6 800 м
[Sc]
+20.8 +17.4 81 +25 +25 комфорт 1013.3 1011.5
03 14.08 СВ 5 20 км 1/1 600 м
[Cu med, cong]
+19.6 +15.9 79 +21 +22 комфорт 1013.2 1011.4 +19.5
06 14.08 В 2 20 км 1/1 1000 м
[Cu med, cong]
+24.9 +17.4 63 +29 +36 душно 1013.3 1011.6
09 14.08 ЮЗ 3 20 км 1/1 600 м
[Cu med, cong]
+26.0 +20.0 70 +32 +44 очень
душно
1012.9 1011.2
12 14.08 З 4 20 км 1/1 600 м
[Cu hum]
+26.1 +19.6 67 +32 +38 очень
душно
1011.9 1010.2
15 14.08 З 5 20 км 1/1 600 м
[Cu hum]
+25.9 +20.0 70 +32 +32 очень
душно
1010.9 1009.2 +26.9
18 14.08 С 1 4000 м 9/9 720 м
[Sc]
+24.9 +21.1 79 +31 +31 очень
душно
1012.1 1010.4
21 14.08 СВ 3 4000 м 9/9 570 м
[Sc]
+23.8 +20.8 83 +30 +30 очень
душно
1012.6 1010.9
00 15.08 В 3 4000 м ясно +21.2 +19.3 89 +26 +26 душно 1012.2 1010.5
03 15.08 В 2 20 км ясно +20.5 +17.3 82 +25 +25 комфорт 1012.2 1010.4 +20.2
06 15.08 СВ 2 20 км ясно +26.2 +16.9 57 +30 +38 душно 1011.6 1009.9
09 15.08 З 2 20 км 1/1 1500 м
[Cu med, cong]
+28.0 +17.2 52 +32 +47 душно 1011.4 1009.7
12 15.08 З 6
{10}
20 км 1/1 1500 м
[Cu hum]
+27.7 +18.9 59 +33 +37 очень
душно
1010.5 1008.8
15 15.08 З 5 20 км 1/1 1500 м
[Cb cap]
+27.4 +19.2 61 +33 +33 очень
душно
1009.7 1008.0 +29.2
18 15.08 штиль 0 50 км ?/? +26.1 +21.8 77 +34 +34 очень
душно
1010.8 1009.1
21 15.08 СВ 4 4000 м 1/0
[Ac trans]
+22.8 +20.4 86 +30 +30 очень
душно
1010.3 1008.6
00 16.08 СВ 3 4000 м ясно +21.9 +18.6 82 +27 +27 душно 1010.2 1008.5
03 16.08 штиль 0 20 км ясно +21.3 +17.3 78 +25 +25 комфорт 1009.9 1008.1 +20.6
06 16.08 СВ 2 20 км ясно +27.9 +18.6 57 +33 +41 очень
душно
1010.0 1008.3
09 16.08 ЮЗ 3 20 км ясно +28.3 +20.6 63 +35 +49 очень
душно
1010.0 1008.3
12 16.08 З 6 20 км 1/1 1000 м
[Cu hum]
+28.0 +21.0 66 +23 +27 комфорт 1009.3 1007.6
15 16.08 З 7
{10}
20 км ясно +27.2 +20.9 68 +34 +34 очень
душно
1009.1 1007.4 +29.2
18 16.08 штиль 0
{10}
4000 м ясно +25.1 +21.7 81 +32 +32 очень
душно
1009.4 1007.7
21 16.08 В 4 4000 м 1/1 300 м
[St]
+22.9 +19.6 82 +29 +29 очень
душно
1010.2 1008.5
00 17.08 В 3 4000 м 6/6 450 м
[St]
+23.3 +20.1 82 +30 +30 очень
душно
1010.0 1008.3
03 17.08 В 2 20 км 4/4 600 м
[Sc]
+22.4 +18.6 79 +28 +28 душно 1010.4 1008.7 +20.0
06 17.08 СВ 1 20 км 1/1 600 м
[Cu med, cong]
+26.8 +21.1 71 +34 +42 очень
душно
1010.1 1008.4
09 17.08 ЮЗ 3 20 км 1/1 600 м
[Cu med, cong]
+27.6 +21.5 69 +35 +47 очень
душно
1009.7 1008.0
12 17.08 З 4 20 км 1/1 600 м
[Sc]
+28.0 +22.1 70 +36 +43 очень
душно
1008.9 1007.2
15 17.08 З 4 20 км 1/1 600 м
[Sc]
+27.2 +23.1 78 +36 +37 очень
душно
1008.4 1006.7 +28.8
18 17.08 З 3 4000 м 5/0
[Ac trans]
+26.0 +22.3 80 +34 +34 очень
душно
1008.8 1007.1
21 17.08 штиль 0 4000 м 9/4 1320 м
[Sc Ac trans]
+25.1 +22.6 86 +33 +33 очень
душно
1008.5 1006.8
00 18.08 штиль 0 4000 м 9/4 1470 м
[Sc Ac trans]
+24.4 +22.3 88 +32 +32 очень
душно
1008.3 1006.6
03 18.08 штиль 0 20 км 5/3
[Cu med, cong Ac trans]
+22.8 +20.8 88 +30 +30 очень
душно
1007.8 1006.1 +22.5
06 18.08 З 3 20 км 6/1 1000 м
[Cb cap Ac trans]
+26.8 +21.4 72 +34 +38 очень
душно
1007.5 1005.8
09 18.08 В 2 20 км зарница {гроза} 9/5 600 м
[Cb cap Ac trans]
+23.1 +19.4 80 +30 +34 очень
душно
1008.7 1007.0
12 18.08 З 3 20 км {гроза} 4/1 1000 м
[Cu hum Ci fib]
+27.2 +17.4 55 +31 +39 душно 1007.8 1006.1
15 18.08 З 2 20 км 4/0
[Ac trans]
+26.0 +20.0 70 +32 +33 очень
душно
1007.8 1006.1
18 18.08 СЗ 2 4000 м 5/5 1080 м
[Sc]
+24.1 +20.0 78 +30 +30 очень
душно
1008.5 1006.8
21 18.08 В 4 4000 м 3/3 1000 м
[Sc]
+22.1 +19.5 85 +28 +28 душно 1008.4 1006.7
00 19.08 СВ 3 4000 м 3/3 1000 м
[Sc]
+21.1 +18.4 85 +25 +25 комфорт 1008.8 1007.0
03 19.08 СВ 4 20 км 1/1 1000 м
[Cu hum]
+20.0 +17.0 83 +23 +23 комфорт 1008.8 1007.0 +19.8
06 19.08 СВ 1 20 км 1/1 1000 м
[Cu hum]
+26.3 +19.0 64 +31 +40 душно 1009.0 1007.3
09 19.08 Ю 3 20 км 4/4 600 м
[Cu med, cong]
+27.5 +22.0 72 +36 +44 очень
душно
1009.5 1007.8
12 19.08 З 3 20 км 4/4 600 м
[Cu hum]
+27.6 +22.0 72 +36 +41 очень
душно
1009.4 1007.7
15 19.08 З 4 20 км 1/1 600 м
[Cu hum]
+26.6 +20.8 71 +33 +34 очень
душно
1008.6 1006.9 +28.2
18 19.08 С 2 4000 м 1/1 600 м
[Sc]
+25.5 +21.9 81 +33 +33 очень
душно
1009.2 1007.5
21 19.08 СВ 3 4000 м 4/4 660 м
[Sc]
+23.7 +21.6 88 +30 +30 очень
душно
1010.3 1008.6
00 20.08 В 5 4000 м 6/6 720 м
[Cb cap]
+22.8 +17.1 70 +28 +28 душно 1010.6 1008.9
03 20.08 СВ 4 20 км 1/1 600 м
[Sc]
+21.4 +14.2 64 +24 +24 комфорт 1010.9 1009.1 +21.1

 

Местоположение метеостанции Сочи аэропорт (Адлер) (Краснодарский край, Россия): широта 43.43 долгота 39.90 высота над уровнем моря 15 м.

В архиве по умолчанию представлена погода в Сочи аэропорту (Адлер) за последнюю неделю. Архивные данные за месяц целиком и за предыдущие месяцы, начиная с января 2011 года, Вы можете получить, выбрав интересующий диапазон дат из раскрывающегося списка и нажав кнопку "Ввод!".


*Определитесь, кто Вы:
робот инопланетянин человек

Внимание! Время в таблицах - всемирное. Для получения местного времени необходимо прибавить поправку, которая в Сочи аэропорту (Адлер) равна 3 ч.

Смотрите также архив погоды в соседних городах и на ближайших метеорологических станциях:

Погода в Имеретинке (Краснодарский край, Россия) (5 км)
Погода в Сочи (Краснодарский край, Россия) (20 км)
Погода в Кепше (Краснодарский край, Россия) (24 км)
Погода в Красной Поляне (Краснодарский край, Россия) (37 км)
Погода в Горная Карусель 1500 (Краснодарский край, Россия) (40 км)
Погода в Горная Карусель 1000 (Краснодарский край, Россия) (40 км)
Погода в Кордоне Лаура (Краснодарский край, Россия) (44 км)
Погода в Солох Ауле (Краснодарский край, Россия) (47 км)
Погода в Кичмае (Краснодарский край, Россия) (54 км)
Погода в Гузерипле (Адыгея, Россия) (66 км)

Пояснения к столбцам:

Ветер - указаны скорость ветра в м/с - средняя за 10 мин, порывы в срок и между сроками (в фигурных скобках) и направление, откуда дует ветер: С - северный, СВ - северо-восточный, В - восточный, ЮВ - юго-восточный, Ю - южный, ЮЗ - юго-западный, З - западный, СЗ - северо-западный.
Видимость - горизонтальная дальность видимости в метрах или километрах. При видимости от 1 до 10 км при отсутствии осадков обычно наблюдается дымка, при ухудшении видимости до 1 км и менее - туман. В сухую погоду видимость может ухудшаться дымом, пылью или мглою.
Явления - указаны атмосферные явления, наблюдавшиеся в срок или в последний час перед сроком; фигурными скобками обозначены явления, наблюдавшиеся между сроками (за 1-3 часа до срока); квадратными скобками обозначены град или гололедные отложения с указанием их диаметра в мм.
Облачность - указаны через наклонную черту общая и нижняя облачность в баллах и высота нижней границы облаков в метрах; квадратными скобками обозначены формы облаков: Ci - перистые, Cs - перисто-слоистые, Cc - перисто-кучевые, Ac - высококучевые, As - высокослоистые, Sc - слоисто-кучевые, Ns - слоисто-дождевые, Cu - кучевые, Cb - кучево-дождевые. Подробнее классификацию облаков см. в Атласе облаков (PDF).
T - Температура воздуха - температура, измеренная на высоте 2 м над землей.
Td - Температура точки росы - температура, при понижении до которой содержащийся в воздухе водяной пар достигнет насыщения.
f - Относительная влажность воздуха - влажноcть воздуха, измеренная на высоте 2 м над землей.
Te - Эффективная температура - температура, которую ощущает одетый по сезону человек в тени. Характеристика душности погоды. При расчете учитывается влияние влажности воздуха и скорости ветра на теплоощущения человека.
Tes - Эффективная температура на солнце - температура, которую ощущает человек, с поправкой на солнечный нагрев. Характеристика знойности погоды. Зависит от высоты солнца над горизонтом, облачности и скорости ветра. Ночью, в пасмурную погоду, а также при ветре 12 м/с и более поправка равна нулю.
P - Атмосферное давление - приведенное к уровню моря атмосферное давление.
Po - Атмосферное давление - измеренное на уровне метеостанции атмосферное давление.
Tmin - Минимальная температура - минимум температуры воздуха на высоте 2 м над землей.
Tmax - Максимальная температура - максимум температуры воздуха на высоте 2 м над землей.
R - Количество осадков - Количество выпавших осадков за период времени, мм. При наведении курсора мыши на число - период времени, за который выпало указанное количество осадков.
R24 - Количество осадков - Количество выпавших осадков за 24 часа, мм.
S - Снежный покров - Высота снежного покрова, см. При наведении курсора мыши на число - состояние снежного покрова и степень покрытия местности в баллах.